When you browse on this site, cookies collect data to enhance your experience and personalize the content and advertising you see.
Visit our Privacy Policy to learn more. By continuing to use the site, you agree to this use of cookies and data.
  • en France
  • Liste des pays
  • À 7 jours
  • Température de l'eau
  • Carte satellitaire
  • Carte météo
  • Widgets météo
  • user-avatar
    Se connecter

    Météo par heure à Zenica

    Ce jour, 25 Mai, Samedi

    Heure Température Précipitation Vent Pression Humidité
    00:00 +7°C° 0 mm 1 m/s 675 mmHg 92%
    01:00 +7°C° 0 mm 1 m/s 674 mmHg 91%
    02:00 +7°C° 0 mm 1 m/s 674 mmHg 90%
    03:00 +7°C° 0 mm 1 m/s 674 mmHg 89%
    04:00 +6°C° 0 mm 1 m/s 675 mmHg 88%
    05:00 +9°C° 0 mm 1 m/s 675 mmHg 81%
    06:00 +11°C° 0 mm 1 m/s 676 mmHg 74%
    07:00 +14°C° 0 mm 1 m/s 677 mmHg 64%
    08:00 +15°C° 0 mm 1 m/s 677 mmHg 58%
    09:00 +18°C° 0 mm 1 m/s 678 mmHg 52%
    10:00 +19°C° 0 mm 1 m/s 678 mmHg 45%
    11:00 +20°C° 0 mm 1 m/s 678 mmHg 44%
    12:00 +21°C° 0 mm 1 m/s 678 mmHg 43%
    13:00 +22°C° 0 mm 1 m/s 679 mmHg 42%
    14:00 +21°C° 0 mm 1 m/s 678 mmHg 44%
    15:00 +21°C° 0 mm 1 m/s 678 mmHg 46%
    16:00 +19°C° 0 mm 0 m/s 678 mmHg 48%
    17:00 +16°C° 0 mm 0 m/s 677 mmHg 58%
    18:00 +14°C° 0 mm 0 m/s 677 mmHg 68%
    19:00 +12°C° 0 mm 0 m/s 676 mmHg 77%
    20:00 +12°C° 0 mm 1 m/s 676 mmHg 82%
    21:00 +11°C° 0 mm 1 m/s 677 mmHg 87%
    22:00 +10°C° 0 mm 1 m/s 677 mmHg 92%
    23:00 +10°C° 0 mm 1 m/s 677 mmHg 93%

    Demain, 26 Mai, Dimanche

    Heure Température Précipitation Vent Pression Humidité
    00:00 +10°C° 0 mm 1 m/s 677 mmHg 94%
    01:00 +10°C° 0 mm 1 m/s 676 mmHg 95%
    02:00 +10°C° 0 mm 1 m/s 676 mmHg 94%
    03:00 +10°C° 0 mm 1 m/s 676 mmHg 93%
    04:00 +10°C° 0 mm 1 m/s 676 mmHg 92%
    05:00 +11°C° 0 mm 1 m/s 676 mmHg 85%
    06:00 +13°C° 0 mm 1 m/s 677 mmHg 77%
    07:00 +15°C° 0 mm 1 m/s 677 mmHg 69%
    08:00 +18°C° 0 mm 1 m/s 678 mmHg 62%
    09:00 +19°C° 0 mm 1 m/s 678 mmHg 54%
    10:00 +21°C° 0 mm 1 m/s 679 mmHg 46%
    11:00 +21°C° 0 mm 1 m/s 679 mmHg 46%
    12:00 +21°C° 0 mm 1 m/s 678 mmHg 45%
    13:00 +21°C° 0 mm 1 m/s 678 mmHg 45%
    14:00 +21°C° 0 mm 1 m/s 678 mmHg 47%
    15:00 +20°C° 0 mm 2 m/s 678 mmHg 49%
    16:00 +20°C° 0 mm 2 m/s 678 mmHg 51%
    17:00 +19°C° 0.1 mm 1 m/s 677 mmHg 61%
    18:00 +16°C° 0.1 mm 1 m/s 677 mmHg 72%
    19:00 +15°C° 0.1 mm 1 m/s 676 mmHg 82%
    20:00 +14°C° 0.1 mm 1 m/s 677 mmHg 84%
    21:00 +13°C° 0.1 mm 1 m/s 677 mmHg 87%
    22:00 +13°C° 0.1 mm 1 m/s 677 mmHg 90%
    23:00 +12°C° 0 mm 1 m/s 676 mmHg 89%

    Après-demain, 27 Mai, Lundi

    Heure Température Précipitation Vent Pression Humidité
    00:00 +12°C° 0 mm 1 m/s 676 mmHg 89%
    01:00 +12°C° 0 mm 1 m/s 676 mmHg 88%
    02:00 +12°C° 0 mm 1 m/s 675 mmHg 89%
    03:00 +11°C° 0 mm 1 m/s 675 mmHg 89%
    04:00 +11°C° 0 mm 1 m/s 675 mmHg 89%
    05:00 +12°C° 0 mm 1 m/s 675 mmHg 85%
    06:00 +14°C° 0 mm 1 m/s 675 mmHg 82%
    07:00 +16°C° 0 mm 1 m/s 676 mmHg 78%
    08:00 +16°C° 0.1 mm 1 m/s 676 mmHg 75%
    09:00 +17°C° 0.1 mm 2 m/s 676 mmHg 73%
    10:00 +17°C° 0.1 mm 2 m/s 676 mmHg 70%
    11:00 +17°C° 0.4 mm 2 m/s 676 mmHg 73%
    12:00 +17°C° 0.4 mm 2 m/s 676 mmHg 76%
    13:00 +17°C° 0.4 mm 2 m/s 676 mmHg 79%
    14:00 +16°C° 0.5 mm 1 m/s 675 mmHg 81%
    15:00 +16°C° 0.5 mm 1 m/s 675 mmHg 84%
    16:00 +15°C° 0.5 mm 1 m/s 674 mmHg 87%
    17:00 +15°C° 0 mm 1 m/s 674 mmHg 88%
    18:00 +14°C° 0 mm 1 m/s 674 mmHg 90%
    19:00 +14°C° 0 mm 1 m/s 673 mmHg 92%
    20:00 +13°C° 0 mm 1 m/s 673 mmHg 92%
    21:00 +12°C° 0 mm 1 m/s 673 mmHg 93%
    22:00 +11°C° 0 mm 1 m/s 673 mmHg 94%
    23:00 +11°C° 0 mm 1 m/s 672 mmHg 94%

    28 Mai, Mardi

    Heure Température Précipitation Vent Pression Humidité
    00:00 +10°C° 0 mm 1 m/s 672 mmHg 93%
    01:00 +10°C° 0 mm 1 m/s 671 mmHg 93%
    02:00 +10°C° 0 mm 1 m/s 671 mmHg 92%
    03:00 +11°C° 0 mm 1 m/s 671 mmHg 91%
    04:00 +11°C° 0 mm 1 m/s 670 mmHg 90%
    05:00 +12°C° 0 mm 2 m/s 671 mmHg 88%
    06:00 +13°C° 0 mm 2 m/s 671 mmHg 86%
    07:00 +14°C° 0 mm 2 m/s 671 mmHg 85%
    08:00 +14°C° 0.1 mm 3 m/s 671 mmHg 81%
    09:00 +14°C° 0.1 mm 3 m/s 671 mmHg 77%
    10:00 +15°C° 0.1 mm 4 m/s 671 mmHg 73%
    11:00 +15°C° 0.2 mm 4 m/s 671 mmHg 74%
    12:00 +15°C° 0.2 mm 4 m/s 671 mmHg 74%
    13:00 +15°C° 0.2 mm 5 m/s 671 mmHg 74%
    14:00 +15°C° 0 mm 5 m/s 671 mmHg 73%
    15:00 +15°C° 0 mm 5 m/s 671 mmHg 72%
    16:00 +16°C° 0 mm 5 m/s 671 mmHg 71%
    17:00 +14°C° 0 mm 4 m/s 670 mmHg 76%
    18:00 +13°C° 0 mm 3 m/s 670 mmHg 81%
    19:00 +12°C° 0 mm 3 m/s 670 mmHg 86%
    20:00 +12°C° 0 mm 3 m/s 670 mmHg 89%
    21:00 +11°C° 0 mm 3 m/s 670 mmHg 92%
    22:00 +10°C° 0 mm 2 m/s 670 mmHg 95%
    23:00 +10°C° 0.1 mm 2 m/s 670 mmHg 95%

    29 Mai, Mercredi

    Heure Température Précipitation Vent Pression Humidité
    00:00 +10°C° 0.1 mm 2 m/s 670 mmHg 96%
    01:00 +10°C° 0.1 mm 2 m/s 671 mmHg 96%
    02:00 +10°C° 0.3 mm 2 m/s 671 mmHg 96%
    03:00 +10°C° 0.3 mm 2 m/s 671 mmHg 96%
    04:00 +12°C° 0.3 mm 2 m/s 671 mmHg 96%
    05:00 +12°C° 0.1 mm 2 m/s 671 mmHg 93%
    06:00 +12°C° 0.1 mm 3 m/s 671 mmHg 91%
    07:00 +12°C° 0.1 mm 3 m/s 672 mmHg 88%
    08:00 +13°C° 0.1 mm 4 m/s 672 mmHg 84%
    09:00 +14°C° 0.1 mm 4 m/s 673 mmHg 80%
    10:00 +15°C° 0.1 mm 5 m/s 673 mmHg 75%
    11:00 +14°C° 0.1 mm 4 m/s 673 mmHg 77%
    12:00 +13°C° 0.1 mm 4 m/s 674 mmHg 79%
    13:00 +12°C° 0.1 mm 3 m/s 674 mmHg 82%
    14:00 +13°C° 0.4 mm 3 m/s 674 mmHg 80%
    15:00 +13°C° 0.4 mm 3 m/s 675 mmHg 78%
    16:00 +13°C° 0.4 mm 4 m/s 675 mmHg 77%
    17:00 +12°C° 0.3 mm 3 m/s 675 mmHg 82%
    18:00 +12°C° 0.3 mm 2 m/s 675 mmHg 87%
    19:00 +11°C° 0.3 mm 1 m/s 675 mmHg 92%
    20:00 +10°C° 0.1 mm 1 m/s 676 mmHg 94%
    21:00 +9°C° 0.1 mm 1 m/s 676 mmHg 96%
    22:00 +8°C° 0.1 mm 1 m/s 676 mmHg 97%
    23:00 +8°C° 0 mm 1 m/s 676 mmHg 98%

    30 Mai, Jeudi

    Heure Température Précipitation Vent Pression Humidité
    00:00 +8°C° 0 mm 1 m/s 676 mmHg 98%
    01:00 +8°C° 0 mm 1 m/s 677 mmHg 98%
    02:00 +8°C° 0 mm 1 m/s 677 mmHg 98%
    03:00 +8°C° 0 mm 1 m/s 677 mmHg 98%
    04:00 +8°C° 0 mm 1 m/s 677 mmHg 98%
    05:00 +8°C° 0.1 mm 1 m/s 678 mmHg 97%
    06:00 +9°C° 0.1 mm 1 m/s 678 mmHg 97%
    07:00 +8°C° 0.1 mm 2 m/s 678 mmHg 96%
    08:00 +9°C° 0.1 mm 2 m/s 678 mmHg 90%
    09:00 +9°C° 0.1 mm 2 m/s 679 mmHg 85%
    10:00 +10°C° 0.1 mm 2 m/s 679 mmHg 79%
    11:00 +10°C° 0.1 mm 2 m/s 679 mmHg 78%
    12:00 +11°C° 0.1 mm 3 m/s 679 mmHg 77%
    13:00 +11°C° 0.1 mm 3 m/s 679 mmHg 76%
    14:00 +11°C° 0 mm 3 m/s 679 mmHg 75%
    15:00 +11°C° 0 mm 3 m/s 679 mmHg 74%
    16:00 +10°C° 0 mm 3 m/s 679 mmHg 73%
    17:00 +9°C° 0 mm 2 m/s 679 mmHg 78%
    18:00 +8°C° 0 mm 2 m/s 679 mmHg 83%
    19:00 +8°C° 0 mm 1 m/s 679 mmHg 89%
    20:00 +7°C° 0 mm 1 m/s 679 mmHg 92%
    21:00 +7°C° 0 mm 1 m/s 679 mmHg 95%
    22:00 +6°C° 0 mm 1 m/s 679 mmHg 98%
    23:00 +6°C° 0 mm 1 m/s 679 mmHg 97%
    Voir plus